N4RCT Weather Reports


Display with metric or nautical units.
time (UTC)temp
F
wind
direction
speed
MPH
gust
MPH
rain 1hr
in
rain 24hr
in
rain mn
in
humidity
%
barometer
mb
20260503233609 64 133 0.0 0.0 0.00 0.00 0.00 56 1016.1
20260503233104 64 119 0.0 0.0 0.00 0.00 0.00 53 1016.0
20260503232602 64 135 0.0 0.0 0.00 0.00 0.00 53 1016.1
20260503232059 65 103 0.0 0.0 0.00 0.00 0.00 50 1016.0
20260503231557 65 116 0.0 0.0 0.00 0.00 0.00 54 1016.3
20260503231053 65 128 0.0 0.0 0.00 0.00 0.00 52 1016.2
20260503230550 65 126 0.0 0.0 0.00 0.00 0.00 50 1016.3
20260503230047 66 115 0.0 0.0 0.00 0.00 0.00 50 1016.3
20260503225544 66 120 0.0 0.0 0.00 0.00 0.00 51 1016.3
20260503225039 66 78 0.0 1.0 0.00 0.00 0.00 52 1016.4
20260503224537 66 80 0.0 1.0 0.00 0.00 0.00 56 1016.2
20260503224035 67 121 0.0 0.0 0.00 0.00 0.00 48 1016.4
20260503223533 67 129 0.0 0.0 0.00 0.00 0.00 46 1016.3
20260503223028 67 81 0.0 0.0 0.00 0.00 0.00 45 1016.3
20260503222526 67 125 0.0 0.0 0.00 0.00 0.00 45 1016.5
20260503222024 67 126 0.0 0.0 0.00 0.00 0.00 45 1016.2
20260503221522 67 182 1.0 1.0 0.00 0.00 0.00 48 1016.4
20260503221019 67 120 0.0 0.0 0.00 0.00 0.00 47 1016.3
20260503220515 67 129 0.0 0.0 0.00 0.00 0.00 48 1016.6
20260503220012 67 177 1.0 1.0 0.00 0.00 0.00 48 1016.4
20260503215509 67 110 0.0 0.0 0.00 0.00 0.00 48 1016.5
20260503215006 68 42 1.0 2.0 0.00 0.00 0.00 46 1016.5
20260503214505 68 153 0.0 0.0 0.00 0.00 0.00 48 1016.5
20260503214001 68 108 0.0 0.0 0.00 0.00 0.00 48 1016.4
20260503213459 68 104 0.0 0.0 0.00 0.00 0.00 48 1016.5
20260503212955 68 189 2.0 2.0 0.00 0.00 0.00 47 1016.6
20260503212453 68 195 0.0 0.0 0.00 0.00 0.00 47 1016.5
20260503211950 68 215 1.0 2.0 0.00 0.00 0.00 47 1016.6
20260503211447 68 155 0.0 1.0 0.00 0.00 0.00 47 1016.7
20260503210943 68 123 0.0 0.0 0.00 0.00 0.00 44 1016.8
20260503210440 68 165 0.0 0.0 0.00 0.00 0.00 44 1016.8
20260503205934 69 195 1.0 1.0 0.00 0.00 0.00 44 1017.0
20260503205432 69 118 0.0 0.0 0.00 0.00 0.00 45 1017.0
20260503204927 68 218 2.0 5.0 0.00 0.00 0.00 44 1017.1
20260503204425 69 208 1.0 1.0 0.00 0.00 0.00 42 1017.2
20260503203922 68 74 0.0 0.0 0.00 0.00 0.00 44 1017.1
20260503203419 68 211 3.0 5.0 0.00 0.00 0.00 41 1017.2
20260503202916 69 181 2.0 3.0 0.00 0.00 0.00 46 1017.3
20260503202415 69 215 1.0 2.0 0.00 0.00 0.00 42 1017.3
20260503201913 69 136 0.0 1.0 0.00 0.00 0.00 42 1017.5
20260503201409 69 93 0.0 0.0 0.00 0.00 0.00 43 1017.6
20260503200907 69 127 0.0 1.0 0.00 0.00 0.00 42 1017.5
20260503200403 69 156 0.0 1.0 0.00 0.00 0.00 40 1017.6
20260503195900 69 157 0.0 1.0 0.00 0.00 0.00 41 1018.0
20260503195356 68 118 2.0 3.0 0.00 0.00 0.00 41 1018.0
20260503194854 69 205 2.0 2.0 0.00 0.00 0.00 40 1018.0
20260503194350 68 76 0.0 0.0 0.00 0.00 0.00 40 1018.0
20260503193846 68 131 0.0 0.0 0.00 0.00 0.00 39 1018.2
20260503193342 69 221 3.0 3.0 0.00 0.00 0.00 40 1018.4
20260503192838 69 229 1.0 3.0 0.00 0.00 0.00 42 1018.5
20260503192333 70 258 1.0 2.0 0.00 0.00 0.00 42 1018.5
20260503191830 70 164 0.0 1.0 0.00 0.00 0.00 44 1018.7
20260503191327 69 162 0.0 0.0 0.00 0.00 0.00 44 1018.5
20260503190824 69 94 0.0 0.0 0.00 0.00 0.00 45 1018.7
20260503190321 68 116 0.0 1.0 0.00 0.00 0.00 45 1018.8
20260503185818 68 64 0.0 0.0 0.00 0.00 0.00 45 1018.9
20260503185313 67 64 3.0 3.0 0.00 0.00 0.00 45 1018.7
20260503184808 67 71 0.0 1.0 0.00 0.00 0.00 47 1018.9
20260503184305 68 70 1.0 2.0 0.00 0.00 0.00 45 1019.2
20260503183800 67 223 2.0 2.0 0.00 0.00 0.00 47 1019.1
20260503183258 68 66 0.0 1.0 0.00 0.00 0.00 45 1019.1
20260503182755 67 210 2.0 2.0 0.00 0.00 0.00 45 1019.1
20260503182254 67 107 0.0 1.0 0.00 0.00 0.00 44 1019.2
20260503181750 67 26 3.0 3.0 0.00 0.00 0.00 46 1019.4
20260503181248 67 128 1.0 1.0 0.00 0.00 0.00 45 1019.5
20260503180744 67 189 2.0 3.0 0.00 0.00 0.00 47 1019.3
20260503180242 66 91 0.0 0.0 0.00 0.00 0.00 47 1019.4
20260503175738 67 125 1.0 1.0 0.00 0.00 0.00 46 1019.5
20260503175237 65 43 0.0 1.0 0.00 0.00 0.00 45 1019.5
20260503174732 66 178 0.0 1.0 0.00 0.00 0.00 44 1019.5
20260503174230 66 163 0.0 1.0 0.00 0.00 0.00 46 1019.4
20260503173725 66 82 0.0 0.0 0.00 0.00 0.00 47 1019.6
20260503173221 65 185 2.0 2.0 0.00 0.00 0.00 53 1019.6
20260503172718 64 200 3.0 3.0 0.00 0.00 0.00 51 1019.8
20260503172215 65 236 2.0 2.0 0.00 0.00 0.00 50 1019.8
20260503171712 65 127 2.0 3.0 0.00 0.00 0.00 49 1019.8
20260503171209 65 167 0.0 0.0 0.00 0.00 0.00 49 1019.8
20260503170706 65 210 3.0 3.0 0.00 0.00 0.00 52 1019.9
20260503170203 65 77 0.0 0.0 0.00 0.00 0.00 49 1020.0
20260503160124 62 201 3.0 3.0 0.00 0.00 0.00 59 1020.6
20260503150554 60 83 0.0 0.0 0.00 0.00 0.00 64 1020.6
20260503130944 53 65 1.0 2.0 0.00 0.00 0.00 77 1020.3
20260503130442 53 109 1.0 2.0 0.00 0.00 0.00 77 1020.4
20260503110332 39 124 0.0 0.0 0.00 0.00 0.00 97 1019.5
20260503100258 40 128 0.0 0.0 0.00 0.00 0.00 96 1018.8
20260503090212 42 108 0.0 0.0 0.00 0.00 0.00 93 1018.3
20260503081139 43 86 0.0 0.0 0.00 0.00 0.00 92 1018.3
20260503080635 44 96 0.0 0.0 0.00 0.00 0.00 91 1018.0
20260503080132 44 97 0.0 0.0 0.00 0.00 0.00 90 1017.9
20260503072609 44 96 0.0 0.0 0.00 0.00 0.00 91 1017.6
20260503072106 44 102 0.0 0.0 0.00 0.00 0.00 91 1017.5
20260503071603 44 102 0.0 0.0 0.00 0.00 0.00 91 1017.4
20260503071059 44 106 0.0 0.0 0.00 0.00 0.00 91 1017.4
20260503070556 44 110 0.0 0.0 0.00 0.00 0.00 90 1017.4
20260503055015 46 119 0.0 0.0 0.00 0.00 0.00 86 1017.3
20260503054511 46 113 0.0 0.0 0.00 0.00 0.00 86 1017.1
20260503054009 46 107 0.0 0.0 0.00 0.00 0.00 86 1017.3
20260503053506 47 100 0.0 0.0 0.00 0.00 0.00 86 1017.2
20260503053004 47 102 0.0 0.0 0.00 0.00 0.00 84 1017.3
20260503052500 47 112 0.0 0.0 0.00 0.00 0.00 82 1017.3
20260503051956 47 130 0.0 0.0 0.00 0.00 0.00 82 1017.4
20260503051452 47 122 0.0 0.0 0.00 0.00 0.00 85 1017.3
20260503050950 47 102 0.0 0.0 0.00 0.00 0.00 81 1017.1
20260503050445 47 102 0.0 0.0 0.00 0.00 0.00 79 1017.4
20260503045943 47 103 0.0 0.0 0.00 0.00 0.00 82 1017.0
20260503045441 48 103 0.0 0.0 0.00 0.00 0.00 83 1017.1
20260503044937 48 111 0.0 0.0 0.00 0.00 0.00 83 1017.1
20260503044434 48 106 0.0 0.0 0.00 0.00 0.00 82 1017.0
20260503043932 48 122 0.0 0.0 0.00 0.00 0.00 80 1016.9
20260503043428 48 118 0.0 0.0 0.00 0.00 0.00 82 1016.8
20260503042924 48 116 0.0 0.0 0.00 0.00 0.00 80 1017.0
20260503042421 48 99 0.0 0.0 0.00 0.00 0.00 78 1017.1
20260503041918 49 102 0.0 0.0 0.00 0.00 0.00 81 1016.9
20260503041415 49 99 0.0 0.0 0.00 0.00 0.00 75 1016.9
20260503040912 49 115 0.0 0.0 0.00 0.00 0.00 76 1016.7
20260503040409 50 91 0.0 0.0 0.00 0.00 0.00 75 1016.6
20260503035907 50 103 0.0 0.0 0.00 0.00 0.00 73 1016.6
20260503035403 50 103 0.0 0.0 0.00 0.00 0.00 74 1016.6
20260503034900 50 109 0.0 0.0 0.00 0.00 0.00 74 1016.7
20260503034358 51 103 0.0 0.0 0.00 0.00 0.00 73 1016.6
20260503033855 51 95 0.0 0.0 0.00 0.00 0.00 76 1016.6
20260503033352 51 113 0.0 0.0 0.00 0.00 0.00 75 1016.6
20260503032850 50 102 0.0 0.0 0.00 0.00 0.00 75 1016.4
20260503032349 50 97 0.0 0.0 0.00 0.00 0.00 76 1016.3
20260503031846 50 109 0.0 0.0 0.00 0.00 0.00 75 1016.4
20260503031344 50 113 0.0 0.0 0.00 0.00 0.00 74 1016.5
20260503030840 50 109 0.0 0.0 0.00 0.00 0.00 79 1016.5
20260503030336 50 111 0.0 0.0 0.00 0.00 0.00 78 1016.5
20260503025833 50 97 0.0 0.0 0.00 0.00 0.00 80 1016.3
20260503025331 51 110 0.0 0.0 0.00 0.00 0.00 77 1016.4
20260503024827 51 108 0.0 0.0 0.00 0.00 0.00 79 1016.2
20260503024324 51 113 0.0 0.0 0.00 0.00 0.00 77 1016.1
20260503023821 51 122 0.0 0.0 0.00 0.00 0.00 78 1016.1
20260503023318 51 126 0.0 0.0 0.00 0.00 0.00 78 1015.9
20260503022814 51 132 0.0 0.0 0.00 0.00 0.00 79 1016.1
20260503022309 51 123 0.0 0.0 0.00 0.00 0.00 75 1015.7
20260503021805 50 98 0.0 0.0 0.00 0.00 0.00 80 1015.7
20260503021302 50 115 0.0 0.0 0.00 0.00 0.00 78 1015.6
20260503020759 50 116 0.0 0.0 0.00 0.00 0.00 78 1015.7
20260503020257 50 115 0.0 0.0 0.00 0.00 0.00 77 1015.6
20260503015753 50 115 0.0 0.0 0.00 0.00 0.00 76 1015.5
20260503015250 50 102 0.0 0.0 0.00 0.00 0.00 75 1015.5
20260503014745 50 99 0.0 0.0 0.00 0.00 0.00 78 1015.2
20260503014244 51 96 0.0 0.0 0.00 0.00 0.00 79 1015.3
20260503013741 51 102 0.0 0.0 0.00 0.00 0.00 79 1015.1
20260503013238 51 102 0.0 0.0 0.00 0.00 0.00 78 1015.2
20260503012736 52 113 0.0 0.0 0.00 0.00 0.00 75 1014.9
20260503012233 52 108 0.0 0.0 0.00 0.00 0.00 76 1014.9
20260503011729 53 105 0.0 0.0 0.00 0.00 0.00 75 1014.9
20260503011226 53 124 0.0 0.0 0.00 0.00 0.00 74 1014.7
20260503010722 54 129 0.0 0.0 0.00 0.00 0.00 72 1014.7
20260503010219 54 117 0.0 0.0 0.00 0.00 0.00 72 1014.7
20260503005717 54 109 0.0 0.0 0.00 0.00 0.00 69 1014.9
20260503005214 55 115 0.0 0.0 0.00 0.00 0.00 68 1014.6
20260503004710 55 123 0.0 0.0 0.00 0.00 0.00 67 1014.7
20260503004209 55 124 0.0 0.0 0.00 0.00 0.00 66 1014.7
20260503003706 56 121 0.0 0.0 0.00 0.00 0.00 63 1014.6
20260503003203 56 131 0.0 0.0 0.00 0.00 0.00 60 1014.6
20260503002659 57 123 0.0 0.0 0.00 0.00 0.00 60 1014.3
20260503002156 57 128 0.0 0.0 0.00 0.00 0.00 55 1014.1
20260503001652 58 130 0.0 0.0 0.00 0.00 0.00 56 1014.3
20260503001149 59 123 0.0 0.0 0.00 0.00 0.00 55 1014.1
20260503000647 59 125 0.0 0.0 0.00 0.00 0.00 55 1014.2
20260503000144 60 123 0.0 0.0 0.00 0.00 0.00 52 1014.0
20260502235640 60 138 0.0 0.0 0.00 0.00 0.00 48 1013.7
20260502235139 61 126 0.0 0.0 0.00 0.00 0.00 47 1013.8
20260502234634 61 114 0.0 0.0 0.00 0.00 0.00 46 1013.7
20260502234132 62 131 0.0 0.0 0.00 0.00 0.00 48 1013.9